Weather in Osovo

Russia / Ryazan Oblast     54°30′02″N   38°49′59″E
temp.,
°C
wind,
m/s
gust,
m/s
humid.,
%
clouds,
%
prec.,
mm/h
press.,
hPa
HPBL,
m
27 february, sat
sat2700:00+1w8159276 0.0 1004720
03:00+1wnw8158873 0.0 1003814
06:00+1wnw91693100 0.0 1002904
09:00−1nnw91787100 0.5 10051002
12:00−6nnw7128787 0.0 1007593
15:00−6nnw5108881 0.0 1010516
18:00−6nnw499393 0.0 1011267
21:00−6nnw4109493 0.0 1014340
28 february, sun
sun2800:00−7nnw379686 0.1 1014229
03:00−9nw369683 0.1 1015120
06:00−8nw239675 0.0 101559
09:00−6n249684 0.3 1015158
12:00−3nnw249396 0.1 1015359
15:00−2nnw459094 0.1 1015575
18:00−3n2593100 0.1 1017185
21:00−4nne239399 0.1 101978
1 march, mon
mon100:00−7nnw119587 0.0 102121
03:00−7nnw129794 0.2 102321
06:00−9nw129780 0.1 102421
09:00−7w229553 0.1 102532
12:00−3wsw349429 0.0 1024324
15:00−1w579062 0.0 1024637
18:00−1w51090100 0.0 1022527
21:00−1w61292100 0.0 1020600
2 march, tue
tue200:000w71392100 0.0 1017542
03:00+1w71492100 0.0 1014677
06:00+1wnw71395100 0.0 1010750
09:00+1wnw81494100 0.3 1010942
12:00+1nw8148998 0.2 10101080
15:00+1nw8138691 0.3 10111110
18:000nw7148699 0.1 1012889
21:00−2nw6148993 0.2 1013734
3 march, wed
wed300:00−3nw6148946 0.0 1013504
03:00−3nw6129271 0.1 1014514
06:00−3nw7139392 0.1 1015719
09:00−4nnw7148786 0.2 1017719
12:00−2nnw7128453 0.0 1018878
15:00−1nw8128774 0.3 10191110
18:00−4nw5128670 0.1 1019428
21:00−6nw499035 0.1 1021176